La Ceiba, Honduras

1:08 AM CST on December 09, 2016 (GMT -0600)
Goloson International

Weather History for MHLC - November, 2012

Change the Weather History Date:

Friday, November 9, 2012

  Actual Average Record
Temperature  
Mean Temperature 72 °F -  
Max Temperature 78 °F 80 °F 89 °F (2000)
Min Temperature 67 °F 67 °F 63 °F (2014)
Cooling Degree Days 8    
Growing Degree Days 22 (Base 50)    
Moisture  
Dew Point 68 °F    
Average Humidity 85    
Maximum Humidity 94    
Minimum Humidity 69    
Precipitation  
Precipitation 0.04 in 0.68 in - ()
Sea Level Pressure  
Sea Level Pressure 30.02 in    
Wind  
Wind Speed 5 mph ()    
Max Wind Speed 12 mph    
Max Gust Speed -    
Visibility 5.1 miles    
Events Rain    
Averages and records for this station are not official NWS values.
T = Trace of Precipitation, MM = Missing Value Source: Averaged Metar Reports

Daily Weather History Graph

Daily Weather History Graph

Search for Another Location

Airport or City:

Trip Planner

Search our weather history database for the weather conditions in past years. The results will help you decide how hot, cold, wet, or windy it might be!

Date:

Astronomy

Nov. 09, 2012 Rise Set
Actual Time 5:47 AM CST 5:14 PM CST
Civil Twilight 5:24 AM CST 5:37 PM CST
Nautical Twilight 4:59 AM CST 6:03 PM CST
Astronomical Twilight 4:33 AM CST 6:28 PM CST
Moon 1:27 AM CST 1:51 PM CST
Length of Visible Light 12h 12m
Length of Day
11h 27m
Waning Crescent, 23% of the Moon is Illuminated
Nov 9
Waning Crescent
Nov 13
New
Nov 20
First Quarter
Nov 28
Full
Dec 6
Last Quarter

Hourly Weather History & Observations

Time (CST) Temp. Dew Point Humidity Pressure Visibility Wind Dir Wind Speed Gust Speed Precip Events Conditions
12:00 AM 67 °F 66 °F 94% 30.07 in 3 mi NNE 11.5 mph - - Rain Heavy Drizzle
12:00 AM 68.0 °F 66.2 °F 94% 30.06 in 3.1 mi NNE 11.5 mph - N/A   Heavy Drizzle
6:00 AM 70 °F 66 °F 84% 30.02 in 6 mi SSE 5.8 mph - -   Partly Cloudy
6:00 AM 69.8 °F 66.2 °F 88% 30.01 in 6.2 mi SSE 5.8 mph - N/A   Mostly Cloudy
7:00 AM 69.8 °F 66.2 °F 88% 30.04 in 1.9 mi South 5.8 mph - N/A   Overcast
8:00 AM 71.6 °F 68.0 °F 88% 30.04 in 6.2 mi SW 2.3 mph - N/A   Mostly Cloudy
9:00 AM 71 °F 68 °F 87% 30.08 in 3 mi SSW 9.2 mph - -   Overcast
9:00 AM 69.8 °F 68.0 °F 94% 30.06 in 3.1 mi SSW 9.2 mph - N/A   Overcast
10:00 AM 73.4 °F 69.8 °F 88% 30.06 in 6.2 mi SSW 2.3 mph - N/A   Mostly Cloudy
11:00 AM 75.2 °F 71.6 °F 89% 30.06 in 6.2 mi NE 5.8 mph - N/A   Overcast
12:00 PM 78 °F 70 °F 69% 30.04 in 2 mi North 4.6 mph - - Rain Drizzle
12:00 PM 77.0 °F 69.8 °F 78% 30.04 in 1.9 mi North 4.6 mph - N/A   Drizzle
1:00 PM 75.2 °F 68.0 °F 78% 30.01 in 6.2 mi ESE 9.2 mph - N/A   Mostly Cloudy
2:00 PM 75.2 °F 68.0 °F 78% 29.98 in 6.2 mi Calm Calm - N/A   Overcast
3:00 PM 77 °F 70 °F 73% 29.97 in 6 mi Calm Calm - -   Overcast
3:00 PM 77.0 °F 69.8 °F 78% 29.97 in 6.2 mi Calm Calm - N/A   Overcast
4:00 PM 75.2 °F 66.2 °F 73% 29.95 in 6.2 mi ESE 8.1 mph - N/A   Overcast
5:00 PM 75.2 °F 66.2 °F 73% 29.95 in 6.2 mi East 2.3 mph - N/A   Mostly Cloudy
6:00 PM 71.6 °F 66.2 °F 83% 29.98 in 6.2 mi Calm Calm - N/A   Mostly Cloudy
7:00 PM 71.6 °F 68.0 °F 88% 30.01 in 6.2 mi Calm Calm - N/A   Mostly Cloudy
8:00 PM 69.8 °F 68.0 °F 94% 30.01 in 6.2 mi SSE 2.3 mph - N/A   Partly Cloudy
9:00 PM 69.8 °F 68.0 °F 94% 30.01 in 6.2 mi Calm Calm - N/A   Mostly Cloudy
10:00 PM 69.8 °F 68.0 °F 94% 30.01 in 6.2 mi Calm Calm - N/A   Mostly Cloudy
11:00 PM 68.0 °F 66.2 °F 94% 30.01 in 6.2 mi Calm Calm - N/A   Scattered Clouds